Hourly Weather Bolshoe Galcevo

Today, 1 August, Sunday

Time Temperature Precipitation Wind Pressure Humidity
00:00 +18°C° 0.1 mm 2 mps 737 mmHg 75%
01:00 +18°C° 0.1 mm 3 mps 737 mmHg 79%
02:00 +18°C° 0 mm 3 mps 737 mmHg 87%
03:00 +18°C° 0.4 mm 3 mps 737 mmHg 90%
04:00 +18°C° 0.4 mm 3 mps 737 mmHg 92%
05:00 +18°C° 0.4 mm 3 mps 737 mmHg 94%
06:00 +19°C° 0.1 mm 4 mps 737 mmHg 91%
07:00 +20°C° 0.1 mm 4 mps 737 mmHg 89%
08:00 +21°C° 0 mm 4 mps 737 mmHg 85%
09:00 +22°C° 0.4 mm 4 mps 737 mmHg 76%
10:00 +23°C° 0.4 mm 4 mps 738 mmHg 68%
11:00 +26°C° 0.4 mm 5 mps 738 mmHg 60%
12:00 +27°C° 0 mm 5 mps 738 mmHg 53%
13:00 +28°C° 0 mm 5 mps 738 mmHg 46%
14:00 +29°C° 0 mm 5 mps 738 mmHg 38%
15:00 +28°C° 0 mm 4 mps 738 mmHg 40%
16:00 +28°C° 0 mm 3 mps 738 mmHg 42%
17:00 +28°C° 0 mm 3 mps 738 mmHg 43%
18:00 +26°C° 0 mm 2 mps 738 mmHg 49%
19:00 +24°C° 0 mm 2 mps 738 mmHg 54%
20:00 +22°C° 0 mm 1 mps 737 mmHg 59%
21:00 +22°C° 0 mm 1 mps 737 mmHg 60%
22:00 +20°C° 0 mm 2 mps 737 mmHg 60%
23:00 +20°C° 0 mm 2 mps 737 mmHg 61%

Tomorrow, 2 August, Monday

Time Temperature Precipitation Wind Pressure Humidity
00:00 +19°C° 0.1 mm 2 mps 737 mmHg 68%
01:00 +19°C° 0.1 mm 3 mps 737 mmHg 74%
02:00 +18°C° 0.1 mm 3 mps 736 mmHg 81%
03:00 +18°C° 0.3 mm 3 mps 736 mmHg 85%
04:00 +18°C° 0.3 mm 3 mps 735 mmHg 90%
05:00 +18°C° 0.3 mm 4 mps 735 mmHg 95%
06:00 +19°C° 0.4 mm 4 mps 734 mmHg 93%
07:00 +20°C° 0.4 mm 5 mps 734 mmHg 92%
08:00 +21°C° 0.4 mm 5 mps 733 mmHg 90%
09:00 +23°C° 0.1 mm 6 mps 733 mmHg 79%
10:00 +27°C° 0.1 mm 7 mps 733 mmHg 67%
11:00 +29°C° 0.1 mm 8 mps 732 mmHg 56%
12:00 +29°C° 0 mm 8 mps 732 mmHg 55%
13:00 +29°C° 0 mm 8 mps 732 mmHg 54%
14:00 +29°C° 0 mm 8 mps 732 mmHg 52%
15:00 +27°C° 0.1 mm 8 mps 732 mmHg 59%
16:00 +23°C° 0.1 mm 8 mps 733 mmHg 66%
17:00 +21°C° 0.1 mm 7 mps 733 mmHg 74%
18:00 +20°C° 0 mm 6 mps 734 mmHg 77%
19:00 +17°C° 0 mm 6 mps 734 mmHg 80%
20:00 +16°C° 0 mm 5 mps 735 mmHg 84%
21:00 +17°C° 0 mm 4 mps 735 mmHg 85%
22:00 +17°C° 0 mm 4 mps 736 mmHg 86%
23:00 +15°C° 0 mm 4 mps 736 mmHg 87%

Day after tomorrow, 3 August, Tuesday

Time Temperature Precipitation Wind Pressure Humidity
00:00 +15°C° 0.1 mm 4 mps 736 mmHg 88%
01:00 +15°C° 0.1 mm 4 mps 736 mmHg 89%
02:00 +15°C° 0.1 mm 5 mps 737 mmHg 91%
03:00 +14°C° 0 mm 4 mps 737 mmHg 92%
04:00 +14°C° 0 mm 4 mps 737 mmHg 92%
05:00 +14°C° 0 mm 4 mps 738 mmHg 93%
06:00 +15°C° 0 mm 4 mps 738 mmHg 85%
07:00 +16°C° 0 mm 5 mps 739 mmHg 78%
08:00 +17°C° 0 mm 5 mps 739 mmHg 70%
09:00 +19°C° 0 mm 5 mps 739 mmHg 63%
10:00 +20°C° 0 mm 5 mps 739 mmHg 57%
11:00 +21°C° 0 mm 6 mps 739 mmHg 50%
12:00 +22°C° 0 mm 5 mps 739 mmHg 48%
13:00 +22°C° 0 mm 5 mps 739 mmHg 46%
14:00 +22°C° 0 mm 5 mps 739 mmHg 44%
15:00 +22°C° 0 mm 5 mps 739 mmHg 45%
16:00 +22°C° 0 mm 5 mps 740 mmHg 47%
17:00 +22°C° 0 mm 5 mps 740 mmHg 49%
18:00 +20°C° 0 mm 4 mps 740 mmHg 56%
19:00 +19°C° 0 mm 4 mps 740 mmHg 63%
20:00 +17°C° 0 mm 3 mps 740 mmHg 70%
21:00 +16°C° 0 mm 3 mps 741 mmHg 77%
22:00 +14°C° 0 mm 3 mps 741 mmHg 84%
23:00 +13°C° 0 mm 3 mps 741 mmHg 91%

4 August, Wednesday

Time Temperature Precipitation Wind Pressure Humidity
00:00 +13°C° 0 mm 3 mps 741 mmHg 93%
01:00 +12°C° 0 mm 3 mps 741 mmHg 94%
02:00 +12°C° 0 mm 3 mps 742 mmHg 96%
03:00 +12°C° 0 mm 3 mps 742 mmHg 95%
04:00 +13°C° 0 mm 2 mps 742 mmHg 95%
05:00 +12°C° 0 mm 2 mps 742 mmHg 95%
06:00 +14°C° 0 mm 2 mps 743 mmHg 87%
07:00 +16°C° 0 mm 2 mps 743 mmHg 78%
08:00 +18°C° 0 mm 2 mps 744 mmHg 70%
09:00 +19°C° 0 mm 2 mps 744 mmHg 63%
10:00 +20°C° 0 mm 2 mps 744 mmHg 57%
11:00 +23°C° 0 mm 2 mps 744 mmHg 50%
12:00 +23°C° 0 mm 2 mps 744 mmHg 47%
13:00 +24°C° 0 mm 2 mps 744 mmHg 44%
14:00 +25°C° 0 mm 2 mps 744 mmHg 40%
15:00 +24°C° 0 mm 2 mps 744 mmHg 44%
16:00 +23°C° 0 mm 2 mps 744 mmHg 47%
17:00 +21°C° 0 mm 2 mps 744 mmHg 50%
18:00 +20°C° 0 mm 2 mps 744 mmHg 52%
19:00 +20°C° 0 mm 1 mps 743 mmHg 54%
20:00 +19°C° 0 mm 1 mps 743 mmHg 55%
21:00 +19°C° 0 mm 1 mps 743 mmHg 55%
22:00 +18°C° 0 mm 2 mps 743 mmHg 55%
23:00 +18°C° 0 mm 2 mps 743 mmHg 55%

5 August, Thursday

Time Temperature Precipitation Wind Pressure Humidity
00:00 +18°C° 0 mm 2 mps 743 mmHg 56%
01:00 +18°C° 0 mm 3 mps 743 mmHg 56%
02:00 +18°C° 0 mm 3 mps 743 mmHg 56%
03:00 +17°C° 0.4 mm 3 mps 743 mmHg 67%
04:00 +16°C° 0.4 mm 2 mps 743 mmHg 78%
05:00 +15°C° 0.4 mm 2 mps 743 mmHg 89%
06:00 +15°C° 0.7 mm 2 mps 743 mmHg 91%
07:00 +14°C° 0.7 mm 3 mps 743 mmHg 93%
08:00 +14°C° 0.7 mm 3 mps 743 mmHg 95%
09:00 +14°C° 0.2 mm 3 mps 743 mmHg 94%
10:00 +15°C° 0.2 mm 4 mps 743 mmHg 94%
11:00 +15°C° 0.2 mm 4 mps 743 mmHg 93%
12:00 +16°C° 0 mm 3 mps 743 mmHg 92%
13:00 +17°C° 0 mm 3 mps 742 mmHg 90%
14:00 +17°C° 0 mm 3 mps 742 mmHg 88%
15:00 +18°C° 0 mm 3 mps 742 mmHg 87%
16:00 +18°C° 0 mm 3 mps 742 mmHg 86%
17:00 +18°C° 0 mm 3 mps 741 mmHg 86%
18:00 +18°C° 0.1 mm 3 mps 741 mmHg 89%
19:00 +17°C° 0.1 mm 3 mps 741 mmHg 92%
20:00 +16°C° 0.1 mm 3 mps 741 mmHg 95%
21:00 +16°C° 0 mm 3 mps 740 mmHg 96%
22:00 +16°C° 0 mm 3 mps 740 mmHg 97%
23:00 +16°C° 0 mm 3 mps 740 mmHg 97%

6 August, Friday

Time Temperature Precipitation Wind Pressure Humidity
00:00 +16°C° 0.1 mm 3 mps 740 mmHg 98%
01:00 +16°C° 0.1 mm 3 mps 740 mmHg 98%
02:00 +14°C° 0.1 mm 3 mps 739 mmHg 98%
03:00 +16°C° 0.5 mm 3 mps 739 mmHg 98%
04:00 +16°C° 0.5 mm 3 mps 739 mmHg 98%
05:00 +16°C° 0.5 mm 3 mps 739 mmHg 98%
06:00 +16°C° 1.1 mm 3 mps 739 mmHg 97%
07:00 +16°C° 1.1 mm 3 mps 738 mmHg 97%
08:00 +15°C° 1.1 mm 4 mps 738 mmHg 97%
09:00 +17°C° 2.3 mm 4 mps 738 mmHg 96%
10:00 +17°C° 2.3 mm 4 mps 738 mmHg 95%
11:00 +17°C° 2.3 mm 3 mps 738 mmHg 95%
12:00 +17°C° 0.9 mm 4 mps 738 mmHg 94%
13:00 +18°C° 0.9 mm 4 mps 738 mmHg 92%
14:00 +19°C° 0.9 mm 4 mps 738 mmHg 91%
15:00 +19°C° 0.8 mm 4 mps 737 mmHg 91%
16:00 +19°C° 0.8 mm 4 mps 737 mmHg 91%
17:00 +19°C° 0.8 mm 4 mps 737 mmHg 91%
18:00 +19°C° 1.6 mm 3 mps 736 mmHg 93%
19:00 +18°C° 1.6 mm 3 mps 736 mmHg 95%
20:00 +18°C° 1.6 mm 3 mps 736 mmHg 97%
21:00 +17°C° 1 mm 3 mps 736 mmHg 97%
22:00 +17°C° 1 mm 3 mps 736 mmHg 97%
23:00 +17°C° 1 mm 3 mps 736 mmHg 97%
Show more

We Need Your Consent

Meteoprog and our Service Providers may store and access personal data such as cookies, device identifiers or other similar technologies on your device and process such data to personalise content and ads, as well as provide social media features and to analyse the traffic.

  • Store and/or access information on your device

    Cookies, device identifiers or other information can be stored or accessed on your device for the purposes indicated above.

  • Personalised ads and content, ad and content measurement, audience insights, and products development

    Ads and content can be personalised based on a profile. More data can be added to better personalise ads and content. Ad and content performance can be measured. Insights about the audience who saw the ads and content can be derived. Such data can be used to develop or improve user’s experience, systems and software.

By clicking ‘I Agree’ you will allow the use of indicated cookies, device identifiers, web beacons or other similar technologies. Your settings can be changed in the browser on your device.

For certain purposes, legitimate interests may be relied on, rather than consent. You can read more about this in our Privacy and Cookie Policy.